Time,TemperatureF,DewpointF,PressureIn,WindDirection,WindDirectionDegrees,WindSpeedMPH,WindSpeedGustMPH,Humidity,HourlyPrecipIn,Conditions,Clouds,dailyrainin,SoftwareType,DateUTC
2013-06-12 00:01:00,65.1,60.8,29.77,East,90,0.0,2.0,86,0.00,,,-99.99,WeatherLink 5.7,2013-06-12 04:01:00,
2013-06-12 00:11:00,64.9,60.6,29.78,East,90,0.0,1.0,86,0.00,,,-99.99,WeatherLink 5.7,2013-06-12 04:11:00,
2013-06-12 00:21:00,64.7,60.7,29.77,East,90,0.0,1.0,87,0.00,,,-99.99,WeatherLink 5.7,2013-06-12 04:21:00,
2013-06-12 00:31:00,64.8,60.8,29.77,East,90,0.0,1.0,87,0.00,,,-99.99,WeatherLink 5.7,2013-06-12 04:31:00,
2013-06-12 00:41:00,64.8,60.8,29.77,East,90,0.0,3.0,87,0.00,,,-99.99,WeatherLink 5.7,2013-06-12 04:41:00,
2013-06-12 00:51:00,64.8,60.8,29.77,SW,225,0.0,1.0,87,0.00,,,-99.99,WeatherLink 5.7,2013-06-12 04:51:00,
2013-06-12 01:01:00,64.7,60.7,29.78,SSE,157,0.0,2.0,87,0.00,,,-99.99,WeatherLink 5.7,2013-06-12 05:01:00,
2013-06-12 01:11:00,64.6,60.6,29.77,East,90,0.0,3.0,87,0.00,,,-99.99,WeatherLink 5.7,2013-06-12 05:11:00,
2013-06-12 01:21:00,64.6,60.6,29.78,East,90,0.0,2.0,87,0.00,,,-99.99,WeatherLink 5.7,2013-06-12 05:21:00,
2013-06-12 01:31:00,64.6,60.6,29.77,East,90,0.0,1.0,87,0.00,,,-99.99,WeatherLink 5.7,2013-06-12 05:31:00,
2013-06-12 01:40:00,64.4,60.4,29.77,East,90,0.0,2.0,87,0.00,,,-99.99,WeatherLink 5.7,2013-06-12 05:40:00,
2013-06-12 01:50:00,64.4,60.1,29.77,East,90,0.0,1.0,86,0.00,,,-99.99,WeatherLink 5.7,2013-06-12 05:50:00,
2013-06-12 02:01:00,64.4,59.8,29.76,East,90,0.0,2.0,85,0.00,,,-99.99,WeatherLink 5.7,2013-06-12 06:01:00,
2013-06-12 02:10:00,64.4,59.5,29.76,East,90,0.0,2.0,84,0.00,,,-99.99,WeatherLink 5.7,2013-06-12 06:10:00,
2013-06-12 02:20:00,64.4,59.5,29.77,SSE,157,0.0,2.0,84,0.00,,,-99.99,WeatherLink 5.7,2013-06-12 06:20:00,
2013-06-12 02:30:00,64.4,59.5,29.76,North,0,0.0,3.0,84,0.00,,,-99.99,WeatherLink 5.7,2013-06-12 06:30:00,
2013-06-12 02:40:00,64.3,59.4,29.76,WNW,292,0.0,2.0,84,0.00,,,-99.99,WeatherLink 5.7,2013-06-12 06:40:00,
2013-06-12 02:50:00,64.2,59.3,29.75,East,90,0.0,3.0,84,0.00,,,-99.99,WeatherLink 5.7,2013-06-12 06:50:00,
2013-06-12 03:01:00,64.2,59.3,29.76,East,90,0.0,2.0,84,0.00,,,-99.99,WeatherLink 5.7,2013-06-12 07:01:00,
2013-06-12 03:10:00,64.3,59.4,29.76,East,90,0.0,1.0,84,0.00,,,-99.99,WeatherLink 5.7,2013-06-12 07:10:00,
2013-06-12 03:20:00,64.3,59.0,29.76,East,90,0.0,1.0,83,0.00,,,-99.99,WeatherLink 5.7,2013-06-12 07:20:00,
2013-06-12 03:31:00,64.3,59.4,29.76,East,90,0.0,2.0,84,0.00,,,-99.99,WeatherLink 5.7,2013-06-12 07:31:00,
2013-06-12 03:40:00,64.0,59.1,29.77,East,90,0.0,2.0,84,0.00,,,-99.99,WeatherLink 5.7,2013-06-12 07:40:00,
2013-06-12 03:50:00,63.8,58.9,29.77,East,90,0.0,2.0,84,0.00,,,-99.99,WeatherLink 5.7,2013-06-12 07:50:00,
2013-06-12 04:01:00,63.8,58.9,29.77,East,90,0.0,2.0,84,0.00,,,-99.99,WeatherLink 5.7,2013-06-12 08:01:00,
2013-06-12 04:10:00,63.8,58.9,29.78,NE,45,0.0,2.0,84,0.00,,,-99.99,WeatherLink 5.7,2013-06-12 08:10:00,
2013-06-12 04:20:00,64.0,59.1,29.79,NNE,22,0.0,2.0,84,0.00,,,-99.99,WeatherLink 5.7,2013-06-12 08:20:00,
2013-06-12 04:31:00,64.2,59.3,29.79,NNE,22,0.0,2.0,84,0.00,,,-99.99,WeatherLink 5.7,2013-06-12 08:31:00,
2013-06-12 04:40:00,64.2,58.9,29.79,NNE,22,0.0,2.0,83,0.00,,,-99.99,WeatherLink 5.7,2013-06-12 08:40:00,
2013-06-12 04:50:00,64.0,59.1,29.79,NE,45,0.0,2.0,84,0.00,,,-99.99,WeatherLink 5.7,2013-06-12 08:50:00,
2013-06-12 05:01:00,63.8,58.5,29.79,NW,315,1.0,2.0,83,0.00,,,-99.99,WeatherLink 5.7,2013-06-12 09:01:00,
2013-06-12 05:10:00,63.6,58.3,29.79,NNW,337,1.0,3.0,83,0.00,,,-99.99,WeatherLink 5.7,2013-06-12 09:10:00,
2013-06-12 05:20:00,63.5,57.9,29.79,NW,315,1.0,2.0,82,0.00,,,-99.99,WeatherLink 5.7,2013-06-12 09:20:00,
2013-06-12 05:30:00,63.3,57.4,29.80,NW,315,1.0,3.0,81,0.00,,,-99.99,WeatherLink 5.7,2013-06-12 09:30:00,
2013-06-12 05:40:00,63.2,57.3,29.81,WNW,292,1.0,3.0,81,0.00,,,-99.99,WeatherLink 5.7,2013-06-12 09:40:00,
2013-06-12 05:51:00,63.0,56.4,29.81,NW,315,1.0,5.0,79,0.00,,,-99.99,WeatherLink 5.7,2013-06-12 09:51:00,
2013-06-12 06:00:00,62.9,55.6,29.81,NW,315,2.0,5.0,77,0.00,,,-99.99,WeatherLink 5.7,2013-06-12 10:00:00,
2013-06-12 06:10:00,62.6,54.6,29.82,NW,315,1.0,4.0,75,0.00,,,-99.99,WeatherLink 5.7,2013-06-12 10:10:00,
2013-06-12 06:20:00,62.4,54.4,29.82,NW,315,1.0,4.0,75,0.00,,,-99.99,WeatherLink 5.7,2013-06-12 10:20:00,
2013-06-12 06:30:00,62.1,54.1,29.82,NW,315,1.0,4.0,75,0.00,,,-99.99,WeatherLink 5.7,2013-06-12 10:30:00,
2013-06-12 06:40:00,61.8,53.8,29.82,NW,315,1.0,3.0,75,0.00,,,-99.99,WeatherLink 5.7,2013-06-12 10:40:00,
2013-06-12 06:50:00,61.5,53.5,29.82,NW,315,1.0,4.0,75,0.00,,,-99.99,WeatherLink 5.7,2013-06-12 10:50:00,
2013-06-12 07:01:00,61.2,53.6,29.83,NW,315,0.0,1.0,76,0.00,,,-99.99,WeatherLink 5.7,2013-06-12 11:01:00,
2013-06-12 07:10:00,61.1,53.8,29.83,NW,315,0.0,2.0,77,0.00,,,-99.99,WeatherLink 5.7,2013-06-12 11:10:00,
2013-06-12 07:20:00,61.1,53.5,29.83,NNW,337,1.0,3.0,76,0.00,,,-99.99,WeatherLink 5.7,2013-06-12 11:20:00,
2013-06-12 07:30:00,61.1,53.5,29.84,NNW,337,0.0,2.0,76,0.00,,,-99.99,WeatherLink 5.7,2013-06-12 11:30:00,
2013-06-12 07:40:00,61.2,53.6,29.83,NNW,337,1.0,3.0,76,0.00,,,-99.99,WeatherLink 5.7,2013-06-12 11:40:00,
2013-06-12 07:50:00,61.4,53.8,29.83,NW,315,1.0,3.0,76,0.00,,,-99.99,WeatherLink 5.7,2013-06-12 11:50:00,
2013-06-12 08:01:00,61.7,53.3,29.84,NW,315,1.0,4.0,74,0.00,,,-99.99,WeatherLink 5.7,2013-06-12 12:01:00,
2013-06-12 08:11:00,62.0,53.6,29.83,NW,315,1.0,3.0,74,0.00,,,-99.99,WeatherLink 5.7,2013-06-12 12:11:00,
2013-06-12 08:20:00,62.3,53.9,29.83,NNW,337,1.0,5.0,74,0.00,,,-99.99,WeatherLink 5.7,2013-06-12 12:20:00,
2013-06-12 08:30:00,62.4,53.6,29.84,NW,315,1.0,4.0,73,0.00,,,-99.99,WeatherLink 5.7,2013-06-12 12:30:00,
2013-06-12 08:40:00,62.4,54.0,29.83,NW,315,1.0,3.0,74,0.00,,,-99.99,WeatherLink 5.7,2013-06-12 12:40:00,
2013-06-12 08:50:00,62.6,54.6,29.84,NNW,337,1.0,4.0,75,0.00,,,-99.99,WeatherLink 5.7,2013-06-12 12:50:00,
2013-06-12 09:00:00,62.8,54.0,29.84,NW,315,1.0,5.0,73,0.00,,,-99.99,WeatherLink 5.7,2013-06-12 13:00:00,
2013-06-12 09:10:00,62.9,54.5,29.83,East,90,0.0,2.0,74,0.00,,,-99.99,WeatherLink 5.7,2013-06-12 13:10:00,
2013-06-12 09:20:00,62.9,54.5,29.83,SE,135,1.0,3.0,74,0.00,,,-99.99,WeatherLink 5.7,2013-06-12 13:20:00,
2013-06-12 09:31:00,63.5,54.7,29.83,NW,315,1.0,4.0,73,0.00,,,-99.99,WeatherLink 5.7,2013-06-12 13:31:00,
2013-06-12 09:40:00,64.2,55.4,29.83,NNW,337,1.0,3.0,73,0.00,,,-99.99,WeatherLink 5.7,2013-06-12 13:40:00,
2013-06-12 09:50:00,64.8,55.2,29.83,NW,315,1.0,4.0,71,0.00,,,-99.99,WeatherLink 5.7,2013-06-12 13:50:00,
2013-06-12 10:00:00,65.4,55.0,29.84,NNW,337,1.0,4.0,69,0.00,,,-99.99,WeatherLink 5.7,2013-06-12 14:00:00,
2013-06-12 10:10:00,65.8,55.3,29.83,North,0,1.0,5.0,69,0.00,,,-99.99,WeatherLink 5.7,2013-06-12 14:10:00,
2013-06-12 10:21:00,66.3,55.8,29.83,NW,315,1.0,5.0,69,0.00,,,-99.99,WeatherLink 5.7,2013-06-12 14:21:00,
2013-06-12 10:30:00,66.6,56.1,29.83,NW,315,1.0,4.0,69,0.00,,,-99.99,WeatherLink 5.7,2013-06-12 14:30:00,
2013-06-12 10:40:00,67.0,55.3,29.84,NNW,337,2.0,4.0,66,0.00,,,-99.99,WeatherLink 5.7,2013-06-12 14:40:00,
2013-06-12 10:50:00,67.5,56.2,29.84,North,0,1.0,3.0,67,0.00,,,-99.99,WeatherLink 5.7,2013-06-12 14:50:00,
2013-06-12 11:00:00,68.0,56.2,29.84,North,0,1.0,4.0,66,0.00,,,-99.99,WeatherLink 5.7,2013-06-12 15:00:00,
2013-06-12 11:11:00,68.6,56.8,29.84,North,0,1.0,5.0,66,0.00,,,-99.99,WeatherLink 5.7,2013-06-12 15:11:00,
2013-06-12 11:20:00,69.1,56.8,29.84,North,0,1.0,3.0,65,0.00,,,-99.99,WeatherLink 5.7,2013-06-12 15:20:00,
2013-06-12 11:30:00,69.4,57.5,29.84,North,0,1.0,3.0,66,0.00,,,-99.99,WeatherLink 5.7,2013-06-12 15:30:00,
2013-06-12 11:40:00,69.8,57.1,29.84,NW,315,1.0,4.0,64,0.00,,,-99.99,WeatherLink 5.7,2013-06-12 15:40:00,
2013-06-12 11:50:00,70.1,56.9,29.84,NNW,337,1.0,4.0,63,0.00,,,-99.99,WeatherLink 5.7,2013-06-12 15:50:00,
2013-06-12 12:00:00,70.5,56.4,29.84,North,0,1.0,4.0,61,0.00,,,-99.99,WeatherLink 5.7,2013-06-12 16:00:00,
2013-06-12 12:10:00,71.0,57.8,29.84,NNW,337,1.0,4.0,63,0.00,,,-99.99,WeatherLink 5.7,2013-06-12 16:10:00,
2013-06-12 12:20:00,71.4,58.1,29.85,NW,315,1.0,4.0,63,0.00,,,-99.99,WeatherLink 5.7,2013-06-12 16:20:00,
2013-06-12 12:30:00,71.8,58.1,29.85,NNW,337,1.0,3.0,62,0.00,,,-99.99,WeatherLink 5.7,2013-06-12 16:30:00,
2013-06-12 12:40:00,71.9,57.7,29.85,WNW,292,1.0,4.0,61,0.00,,,-99.99,WeatherLink 5.7,2013-06-12 16:40:00,
2013-06-12 12:50:00,71.7,56.6,29.85,WNW,292,2.0,4.0,59,0.00,,,-99.99,WeatherLink 5.7,2013-06-12 16:50:00,
2013-06-12 13:00:00,72.0,57.4,29.85,NW,315,1.0,4.0,60,0.00,,,-99.99,WeatherLink 5.7,2013-06-12 17:00:00,
2013-06-12 13:10:00,72.5,56.9,29.85,WNW,292,1.0,4.0,58,0.00,,,-99.99,WeatherLink 5.7,2013-06-12 17:10:00,
2013-06-12 13:20:00,72.9,55.8,29.85,NNW,337,1.0,4.0,55,0.00,,,-99.99,WeatherLink 5.7,2013-06-12 17:20:00,
2013-06-12 13:30:00,73.4,57.2,29.85,NW,315,1.0,3.0,57,0.00,,,-99.99,WeatherLink 5.7,2013-06-12 17:30:00,
2013-06-12 13:40:00,73.7,57.0,29.85,NW,315,1.0,4.0,56,0.00,,,-99.99,WeatherLink 5.7,2013-06-12 17:40:00,
2013-06-12 13:50:00,74.0,56.8,29.84,WNW,292,1.0,3.0,55,0.00,,,-99.99,WeatherLink 5.7,2013-06-12 17:50:00,
2013-06-12 14:01:00,73.9,56.2,29.85,SSE,157,1.0,3.0,54,0.00,,,-99.99,WeatherLink 5.7,2013-06-12 18:01:00,
2013-06-12 14:11:00,74.3,57.6,29.85,North,0,1.0,4.0,56,0.00,,,-99.99,WeatherLink 5.7,2013-06-12 18:11:00,
2013-06-12 14:21:00,74.2,56.5,29.85,NW,315,1.0,5.0,54,0.00,,,-99.99,WeatherLink 5.7,2013-06-12 18:21:00,
2013-06-12 14:31:00,74.0,56.8,29.85,WNW,292,1.0,5.0,55,0.00,,,-99.99,WeatherLink 5.7,2013-06-12 18:31:00,
2013-06-12 14:41:00,74.2,56.5,29.85,NNW,337,1.0,5.0,54,0.00,,,-99.99,WeatherLink 5.7,2013-06-12 18:41:00,
2013-06-12 14:51:00,74.9,57.1,29.84,WNW,292,1.0,4.0,54,0.00,,,-99.99,WeatherLink 5.7,2013-06-12 18:51:00,
2013-06-12 15:01:00,75.0,56.2,29.84,WNW,292,2.0,5.0,52,0.00,,,-99.99,WeatherLink 5.7,2013-06-12 19:01:00,
2013-06-12 15:11:00,75.0,56.7,29.84,NW,315,1.0,4.0,53,0.00,,,-99.99,WeatherLink 5.7,2013-06-12 19:11:00,
2013-06-12 15:21:00,75.0,57.2,29.84,WNW,292,1.0,4.0,54,0.00,,,-99.99,WeatherLink 5.7,2013-06-12 19:21:00,
2013-06-12 15:31:00,74.9,56.1,29.84,NW,315,1.0,4.0,52,0.00,,,-99.99,WeatherLink 5.7,2013-06-12 19:31:00,
2013-06-12 15:41:00,75.1,56.8,29.84,NW,315,1.0,3.0,53,0.00,,,-99.99,WeatherLink 5.7,2013-06-12 19:41:00,
2013-06-12 15:51:00,75.2,56.9,29.84,WNW,292,1.0,4.0,53,0.00,,,-99.99,WeatherLink 5.7,2013-06-12 19:51:00,
2013-06-12 16:01:00,75.1,56.3,29.83,NW,315,1.0,4.0,52,0.00,,,-99.99,WeatherLink 5.7,2013-06-12 20:01:00,
2013-06-12 16:11:00,75.0,57.2,29.83,NNW,337,1.0,3.0,54,0.00,,,-99.99,WeatherLink 5.7,2013-06-12 20:11:00,
2013-06-12 16:21:00,74.7,55.9,29.84,West,270,1.0,3.0,52,0.00,,,-99.99,WeatherLink 5.7,2013-06-12 20:21:00,
2013-06-12 16:31:00,74.5,57.3,29.83,NW,315,0.0,4.0,55,0.00,,,-99.99,WeatherLink 5.7,2013-06-12 20:31:00,
2013-06-12 16:41:00,74.2,57.5,29.83,NW,315,1.0,2.0,56,0.00,,,-99.99,WeatherLink 5.7,2013-06-12 20:41:00,
2013-06-12 16:51:00,73.9,57.2,29.84,NW,315,1.0,3.0,56,0.00,,,-99.99,WeatherLink 5.7,2013-06-12 20:51:00,
2013-06-12 17:01:00,73.8,57.1,29.85,WNW,292,0.0,3.0,56,0.00,,,-99.99,WeatherLink 5.7,2013-06-12 21:01:00,
2013-06-12 17:11:00,73.6,57.4,29.85,WNW,292,0.0,2.0,57,0.00,,,-99.99,WeatherLink 5.7,2013-06-12 21:11:00,
2013-06-12 17:21:00,73.3,57.1,29.86,WNW,292,0.0,2.0,57,0.00,,,-99.99,WeatherLink 5.7,2013-06-12 21:21:00,
2013-06-12 17:31:00,73.1,57.4,29.86,WNW,292,1.0,3.0,58,0.00,,,-99.99,WeatherLink 5.7,2013-06-12 21:31:00,
2013-06-12 17:41:00,73.2,57.5,29.86,North,0,0.0,2.0,58,0.00,,,-99.99,WeatherLink 5.7,2013-06-12 21:41:00,
2013-06-12 17:51:00,72.9,58.2,29.85,ESE,112,0.0,2.0,60,0.00,,,-99.99,WeatherLink 5.7,2013-06-12 21:51:00,
2013-06-12 18:01:00,72.6,57.9,29.85,ESE,112,0.0,2.0,60,0.00,,,-99.99,WeatherLink 5.7,2013-06-12 22:01:00,
2013-06-12 18:11:00,72.3,57.2,29.85,NW,315,0.0,2.0,59,0.00,,,-99.99,WeatherLink 5.7,2013-06-12 22:11:00,
2013-06-12 18:21:00,72.1,57.9,29.85,West,270,0.0,2.0,61,0.00,,,-99.99,WeatherLink 5.7,2013-06-12 22:21:00,
2013-06-12 18:31:00,71.9,58.2,29.84,North,-999,0.0,0.0,62,0.00,,,-99.99,WeatherLink 5.7,2013-06-12 22:31:00,
2013-06-12 18:41:00,71.6,57.9,29.85,WSW,247,0.0,1.0,62,0.00,,,-99.99,WeatherLink 5.7,2013-06-12 22:41:00,
2013-06-12 18:51:00,71.3,58.1,29.84,North,-999,0.0,1.0,63,0.00,,,-99.99,WeatherLink 5.7,2013-06-12 22:51:00,
2013-06-12 19:01:00,71.0,57.3,29.85,SW,225,0.0,1.0,62,0.00,,,-99.99,WeatherLink 5.7,2013-06-12 23:01:00,
2013-06-12 19:12:00,70.8,56.7,29.86,SW,225,0.0,1.0,61,0.00,,,-99.99,WeatherLink 5.7,2013-06-12 23:12:00,
2013-06-12 19:21:00,70.6,56.9,29.86,North,-999,0.0,0.0,62,0.00,,,-99.99,WeatherLink 5.7,2013-06-12 23:21:00,
2013-06-12 19:31:00,70.4,56.8,29.86,North,-999,0.0,0.0,62,0.00,,,-99.99,WeatherLink 5.7,2013-06-12 23:31:00,
2013-06-12 19:41:00,70.2,56.6,29.87,North,-999,0.0,0.0,62,0.00,,,-99.99,WeatherLink 5.7,2013-06-12 23:41:00,
2013-06-12 19:51:00,70.0,56.4,29.87,North,-999,0.0,1.0,62,0.00,,,-99.99,WeatherLink 5.7,2013-06-12 23:51:00,
2013-06-12 20:01:00,69.6,56.0,29.88,North,-999,0.0,0.0,62,0.00,,,-99.99,WeatherLink 5.7,2013-06-13 00:01:00,
2013-06-12 20:11:00,69.3,56.6,29.88,North,-999,0.0,0.0,64,0.00,,,-99.99,WeatherLink 5.7,2013-06-13 00:11:00,
2013-06-12 20:21:00,68.9,56.2,29.89,North,-999,0.0,0.0,64,0.00,,,-99.99,WeatherLink 5.7,2013-06-13 00:21:00,
2013-06-12 20:31:00,68.6,55.9,29.89,North,-999,0.0,0.0,64,0.00,,,-99.99,WeatherLink 5.7,2013-06-13 00:31:00,
2013-06-12 20:41:00,68.3,57.3,29.89,North,-999,0.0,0.0,68,0.00,,,-99.99,WeatherLink 5.7,2013-06-13 00:41:00,
2013-06-12 20:51:00,67.5,57.4,29.89,North,-999,0.0,0.0,70,0.00,,,-99.99,WeatherLink 5.7,2013-06-13 00:51:00,
2013-06-12 21:01:00,66.7,57.8,29.88,North,-999,0.0,0.0,73,0.00,,,-99.99,WeatherLink 5.7,2013-06-13 01:01:00,
2013-06-12 21:11:00,66.0,57.1,29.88,North,-999,0.0,0.0,73,0.00,,,-99.99,WeatherLink 5.7,2013-06-13 01:11:00,
2013-06-12 21:21:00,65.4,57.3,29.88,North,-999,0.0,0.0,75,0.00,,,-99.99,WeatherLink 5.7,2013-06-13 01:21:00,
2013-06-12 21:31:00,64.8,57.1,29.88,North,-999,0.0,0.0,76,0.00,,,-99.99,WeatherLink 5.7,2013-06-13 01:31:00,
2013-06-12 21:41:00,64.3,56.9,29.88,North,-999,0.0,0.0,77,0.00,,,-99.99,WeatherLink 5.7,2013-06-13 01:41:00,
2013-06-12 21:51:00,63.6,57.0,29.88,North,-999,0.0,0.0,79,0.00,,,-99.99,WeatherLink 5.7,2013-06-13 01:51:00,
2013-06-12 22:01:00,63.2,56.6,29.89,North,-999,0.0,0.0,79,0.00,,,-99.99,WeatherLink 5.7,2013-06-13 02:01:00,
2013-06-12 22:11:00,62.7,56.4,29.88,North,-999,0.0,0.0,80,0.00,,,-99.99,WeatherLink 5.7,2013-06-13 02:11:00,
2013-06-12 22:21:00,62.4,56.1,29.88,North,-999,0.0,0.0,80,0.00,,,-99.99,WeatherLink 5.7,2013-06-13 02:21:00,
2013-06-12 22:31:00,61.9,56.0,29.88,North,-999,0.0,0.0,81,0.00,,,-99.99,WeatherLink 5.7,2013-06-13 02:31:00,
2013-06-12 22:41:00,61.7,55.8,29.88,North,-999,0.0,0.0,81,0.00,,,-99.99,WeatherLink 5.7,2013-06-13 02:41:00,
2013-06-12 22:51:00,61.6,56.0,29.88,North,-999,0.0,0.0,82,0.00,,,-99.99,WeatherLink 5.7,2013-06-13 02:51:00,
2013-06-12 23:01:00,61.1,55.9,29.88,North,-999,0.0,0.0,83,0.00,,,-99.99,WeatherLink 5.7,2013-06-13 03:01:00,
2013-06-12 23:11:00,60.8,55.6,29.87,North,-999,0.0,0.0,83,0.00,,,-99.99,WeatherLink 5.7,2013-06-13 03:11:00,
2013-06-12 23:21:00,60.2,55.3,29.88,North,-999,0.0,0.0,84,0.00,,,-99.99,WeatherLink 5.7,2013-06-13 03:21:00,
2013-06-12 23:31:00,60.3,55.4,29.87,North,-999,0.0,0.0,84,0.00,,,-99.99,WeatherLink 5.7,2013-06-13 03:31:00,
2013-06-12 23:41:00,60.3,55.4,29.87,North,-999,0.0,0.0,84,0.00,,,-99.99,WeatherLink 5.7,2013-06-13 03:41:00,
2013-06-12 23:51:00,60.2,55.3,29.88,North,-999,0.0,0.0,84,0.00,,,-99.99,WeatherLink 5.7,2013-06-13 03:51:00,